Current weather by "City, St" or "zip code"  
 

Current Conditions: Topeka, Philip Billard Municipal Airport, KS

Overcast


41.0 F

Last Updated on Oct 24 2020, 8:53 pm CDT
Humidity: 65%
Wind Speed: E 9.2 mph
Barometer 30.12 in
Dewpoint: 30.0 F
Visibility: 10.00 mi
Precip: --
Heat Index: NA
Wind Chill: 35 F
Current conditions at:

Topeka, Philip Billard Municipal Airport, KS (KTOP)

Lat: 39.0725 Lon: 95.62583

Local Radar Image active severe weather and emergency alerts image image weather storm and storm spotter reports image weather observation monitoring service image
Local
Radar
Active
Alerts
Storm Reports Obs
Monitoring

Sign-up For Email & Text Message Weather Alert Notification Services



Advertise Here

Observation History for Topeka, Philip Billard Municipal Airport, KS


Time Wind
(mph)
Vis
(mi)
Weather Precip (in) Temperature (F) Relative
Humidity
Wind
Chill
(F)
Heat
Index
(F)
Pressure
Air Dwpt altimeter
(in)
sea level
(mb)
Rmks
8:53 pm CDT E 9.2 10.00 Overcast -- 41.0 30.0 65% 35 NA 30.12 1020.5
7:53 pm CDT NE 8.1 10.00 Overcast -- 41.0 30.0 65% 36 NA 30.13 1020.8
6:53 pm CDT NE 6.9 10.00 Overcast -- 41.0 30.0 65% 36 NA 30.12 1020.5
5:53 pm CDT E 8.1 10.00 Overcast -- 41.0 28.9 62% 36 NA 30.11 1020.1
4:53 pm CDT NE 10.4 10.00 Overcast -- 42.0 28.9 60% 36 NA 30.11 1020.2
3:53 pm CDT E 9.2 10.00 Overcast -- 42.0 28.9 60% 36 NA 30.12 1020.3
2:53 pm CDT E 8.1 10.00 Overcast -- 41.0 28.0 60% 36 NA 30.14 1021.2
1:53 pm CDT E 5.8 10.00 Overcast -- 40.0 28.0 63% 36 NA 30.16 1021.8
12:53 pm CDT E 5.8 10.00 Overcast -- 40.0 27.0 60% 36 NA 30.21 1023.5
11:53 am CDT 6.9 10.00 Overcast -- 39.0 27.0 62% 34 NA 30.24 1024.5
10:53 am CDT E 9.2 10.00 Overcast -- 38.0 28.0 68% 32 NA 30.25 1025.0
9:53 am CDT E 10.4 G 19.6 10.00 Overcast -- 37.0 27.0 67% 30 NA 30.27 1025.5
8:53 am CDT E 8.1 10.00 Overcast -- 37.0 27.0 67% 31 NA 30.27 1025.7
7:53 am CDT E 8.1 10.00 Overcast -- 37.0 27.0 67% 31 NA 30.28 1025.8
6:53 am CDT E 5.8 10.00 Overcast -- 37.0 27.0 67% 32 NA 30.29 1026.2
5:53 am CDT E 5.8 10.00 Overcast -- 37.0 27.0 67% 32 NA 30.29 1026.4
4:53 am CDT N 5.8 10.00 Overcast -- 36.0 28.0 73% 31 NA 30.31 1026.8
3:53 am CDT N 4.6 10.00 Overcast -- 36.0 28.0 73% 32 NA 30.33 1027.4
2:53 am CDT N 5.8 10.00 Overcast -- 37.0 27.0 67% 32 NA 30.35 1028.1
1:53 am CDT N 5.8 10.00 Overcast -- 37.0 27.0 67% 32 NA 30.35 1028.3
12:53 am CDT N 5.8 10.00 Overcast -- 37.0 27.0 67% 32 NA 30.36 1028.8
11:53 pm CDT NE 10.4 10.00 Overcast -- 38.0 27.0 65% 31 NA 30.39 1029.8
10:53 pm CDT N 9.2 G 19.6 10.00 Overcast -- 38.0 26.1 62% 32 NA 30.40 1030.0
9:53 pm CDT N 11.5 10.00 Overcast -- 39.0 28.0 65% 32 NA 30.40 1030.1

Regional Weather Observation


Lawrence, Lawrence Municipal Airport, KS (KLWC)

Overcast
41.0 F

Topeka, Forbes Field, KS (KFOE)

Overcast
40.0 F

Manhattan, Manhattan Municipal Airport, KS (KMHK)

Overcast
39.0 F

Fort Riley - Marshall AAF, KS (KFRI)

Overcast
38.0 F

St. Joseph, Rosecrans Memorial Airport, MO (KSTJ)

Overcast
39.0 F

Kansas City, Kansas City International Airport, MO (KMCI)

Overcast
40.0 F